Weather History for Nashua, NH

Change the Weather History Date:

Sunday, November 3, 2013

  Actual Average Record
Temperature  
Mean Temperature 40 °F -  
Max Temperature 48 °F 57 °F 81 °F (1950)
Min Temperature 31 °F 35 °F 18 °F (1980)
Degree Days  
Heating Degree Days 25    
Moisture  
Dew Point 25 °F    
Average Humidity 58    
Maximum Humidity 93    
Minimum Humidity 29    
Precipitation  
Precipitation 0.01 in - - ()
Sea Level Pressure  
Sea Level Pressure 30.46 in    
Wind  
Wind Speed 10 mph (NNW)    
Max Wind Speed 16 mph    
Max Gust Speed 21 mph    
Visibility 10 miles    
Events Rain    
Averages and records for this station are not official NWS values.
T = Trace of Precipitation, MM = Missing Value Source: NWS Daily Summary

Daily Weather History Graph

Daily Weather History Graph

Search for Another Location

Airport:

Trip Planner

Search our weather history database for the weather conditions in past years. The results will help you decide how hot, cold, wet, or windy it might be!

Date:

Astronomy

Nov. 03, 2013 Rise Set
Actual Time 6:22 AM EST 4:35 PM EST
Civil Twilight 5:53 AM EST 5:05 PM EST
Nautical Twilight 5:19 AM EST 5:38 PM EST
Astronomical Twilight 4:46 AM EST 6:11 PM EST
Moon 6:23 AM EST (11/3) 4:47 PM EST (11/3)
Length of Visible Light 11h 11m
Length of Day
10h 12m
New Moon, 0% of the Moon is Illuminated
Nov 3
New Moon
Nov 10
First Quarter
Nov 17
Full
Nov 25
Last Quarter
Dec 2
New

Hourly Weather History & Observations

Time (EST) Temp. Windchill Dew Point Humidity Pressure Visibility Wind Dir Wind Speed Gust Speed Precip Events Conditions
12:44 AM 48.2 °F - 46.4 °F 93% 29.77 in 10.0 mi North 10.4 mph - N/A   Mostly Cloudy
12:51 AM 47.8 °F - 45.0 °F 90% 30.51 in 10.0 mi North 9.2 mph - N/A   Overcast
1:12 AM 46.4 °F 39.8 °F 41.0 °F 81% 29.78 in 10.0 mi NW 16.1 mph 20.7 mph N/A   Partly Cloudy
1:51 AM 45.0 °F 38.2 °F 37.9 °F 76% 30.55 in 10.0 mi NNW 15.0 mph - N/A   Clear
1:51 AM 41.9 °F 36.9 °F 34.0 °F 73% 30.58 in 10.0 mi North 8.1 mph - N/A   Overcast
2:51 AM 41.9 °F 36.9 °F 32.9 °F 70% 30.60 in 10.0 mi North 8.1 mph - N/A   Mostly Cloudy
3:13 AM 42.8 °F 37.5 °F 33.8 °F 70% 29.88 in 10.0 mi NNW 9.2 mph - N/A   Overcast
3:51 AM 41.9 °F 35.0 °F 32.0 °F 68% 30.64 in 10.0 mi NNW 12.7 mph - N/A   Overcast
4:51 AM 41.0 °F 33.5 °F 32.0 °F 70% 30.69 in 10.0 mi NNW 13.8 mph - N/A   Overcast
5:51 AM 41.0 °F 35.2 °F 30.0 °F 65% 30.72 in 10.0 mi NNW 9.2 mph - N/A   Overcast
6:16 AM 41.0 °F 35.2 °F 30.2 °F 65% 30.00 in 10.0 mi NNW 9.2 mph - N/A   Overcast
6:51 AM 38.8 °F 32.1 °F 31.1 °F 74% 30.76 in 10.0 mi NNW 10.4 mph - 0.00 in Rain Light Rain
7:23 AM 37.4 °F 30.8 °F 32.0 °F 81% 30.05 in 10.0 mi NNW 9.2 mph - 0.01 in Rain Light Rain
7:38 AM 37.4 °F 30.8 °F 30.2 °F 75% 30.05 in 10.0 mi North 9.2 mph - 0.01 in Rain Light Rain
7:51 AM 37.9 °F 31.5 °F 29.1 °F 71% 30.81 in 10.0 mi North 9.2 mph - 0.01 in   Overcast
8:36 AM 39.2 °F 33.0 °F 28.4 °F 65% 30.09 in 10.0 mi NNW 9.2 mph - 0.00 in Rain Light Rain
8:51 AM 37.9 °F 30.9 °F 27.1 °F 65% 30.85 in 10.0 mi NNW 10.4 mph - 0.00 in Rain Light Rain
9:51 AM 38.8 °F 32.6 °F 25.2 °F 58% 30.87 in 10.0 mi NNW 9.2 mph - 0.00 in   Overcast
10:51 AM 39.9 °F 35.8 °F 23.0 °F 51% 30.89 in 10.0 mi North 5.8 mph - N/A   Overcast
11:04 AM 39.2 °F 32.0 °F 21.2 °F 49% 30.14 in 10.0 mi North 11.5 mph - N/A   Overcast
11:51 AM 43.0 °F 37.2 °F 21.0 °F 42% 30.88 in 10.0 mi NNW 10.4 mph - N/A   Overcast
12:51 PM 43.9 °F 38.8 °F 18.1 °F 36% 30.89 in 10.0 mi NNW 9.2 mph - N/A   Scattered Clouds
1:51 PM 43.9 °F 38.3 °F 14.0 °F 30% 30.91 in 10.0 mi North 10.4 mph 17.3 mph N/A   Scattered Clouds
2:51 PM 43.9 °F 37.5 °F 13.1 °F 29% 30.92 in 10.0 mi NNE 12.7 mph 17.3 mph N/A   Clear
3:51 PM 43.0 °F 36.8 °F 13.1 °F 30% 30.96 in 10.0 mi North 11.5 mph - N/A   Clear
4:51 PM 39.9 °F 34.5 °F 13.1 °F 33% 31.00 in 10.0 mi NNE 8.1 mph 16.1 mph N/A   Clear
5:51 PM 38.8 °F 32.6 °F 10.0 °F 31% 31.04 in 10.0 mi North 9.2 mph 15.0 mph N/A   Clear
6:51 PM 36.9 °F 29.1 °F 11.1 °F 35% 31.08 in 10.0 mi North 11.5 mph 19.6 mph N/A   Clear
7:51 PM 36.0 °F 29.0 °F 12.0 °F 37% 31.10 in 10.0 mi NNW 9.2 mph - N/A   Clear
8:51 PM 34.0 °F 28.0 °F 14.0 °F 44% 31.15 in 10.0 mi NNW 6.9 mph - N/A   Clear
9:51 PM 32.9 °F - 15.1 °F 48% 28.23 in 10.0 mi Calm Calm - N/A   Clear
10:51 PM 31.1 °F - 16.2 °F 54% 28.24 in 10.0 mi Calm Calm - N/A   Clear